Flag for Canada Weather past 2 weeks in Mississauga, Ontario, Canada

Now
43 °F

Mostly cloudy.


Feels Like: 39 °F
Forecast: 41 / 54 °F
Wind: 7 mph from South

Location: Toronto Pearson International Airport

Current Time: Oct 20, 2014 at 6:01:40 AM

Latest Report: Oct 20, 2014 at 5:00 AM


Visibility: 15 mi

Pressure: 29.93 "Hg

Humidity: 81%

Dew point: 37 °F

Location of MississaugaLocation

Historic Weather in Mississauga — Graph

°F

Mississauga temperature yesterday

Maximum temperature yesterday: 48 °F (at 3:00 PM)
Minimum temperature yesterday: 37 °F (at 6:00 AM)
Average temperature yesterday: 42 °F

Past Weeks' High & Low Weather Summary

 TemperatureHumidityPressure
High72 °F (Oct 14, 4:00 PM)100% (Oct 7, 9:00 PM)30.30 "Hg (Oct 7, 9:00 PM)
Low36 °F (Oct 12, 4:00 AM)38% (Oct 11, 2:51 PM)29.48 "Hg (Oct 17, 10:00 PM)
Average52 °F75%29.88 "Hg
* Reported Oct 5 5:00 AM — Oct 20 5:00 AM, Mississauga, Weather by CustomWeather, © 2014

Note: Actual official high and low records may vary slightly from our data, if they occured in-between our weather recording intervals... More about our weather records

Advertising

Mississauga weather history for previous 24 hours

 ConditionsComfort  
Time TempWeatherWind HumidityBarometerVisibility
5:00 AM
Oct 20
43 °FMostly cloudy.7 mph81%29.93 "Hg15 mi
4:00 AM43 °FPassing clouds.3 mph76%29.95 "Hg15 mi
3:00 AM43 °FPassing clouds.3 mph76%29.98 "Hg15 mi
2:00 AM43 °FOvercast.3 mph76%29.99 "Hg15 mi
1:00 AM43 °FPassing clouds.3 mph76%29.99 "Hg15 mi
11:00 PM
Oct 19
41 °FMostly cloudy.5 mph76%30.01 "Hg15 mi
10:00 PM41 °FMostly cloudy.7 mph76%30.03 "Hg15 mi
9:00 PM45 °FPassing clouds.3 mph66%30.03 "Hg15 mi
8:00 PM43 °FPassing clouds.8 mph66%30.05 "Hg15 mi
7:00 PM45 °FOvercast.6 mph61%30.05 "Hg15 mi
6:00 PM46 °FOvercast.9 mph57%30.05 "Hg15 mi
5:00 PM48 °FOvercast.10 mph50%30.06 "Hg15 mi
4:00 PM48 °FPartly sunny.12 mph50%30.07 "Hg15 mi
3:00 PM48 °FPartly sunny.12 mph50%30.09 "Hg15 mi
2:00 PM46 °FPartly sunny.13 mph50%30.10 "Hg15 mi
1:00 PM45 °FPartly sunny.10 mph53%30.12 "Hg15 mi
12:00 PM43 °FBroken clouds.7 mph61%30.13 "Hg15 mi
11:00 AM41 °FPartly sunny.8 mph66%30.14 "Hg15 mi
10:00 AM39 °FPartly sunny.6 mph70%30.14 "Hg15 mi
9:00 AM39 °FPartly sunny.9 mph65%30.13 "Hg15 mi
8:00 AM37 °FPassing clouds.8 mph65%30.11 "Hg15 mi
7:00 AM37 °FPassing clouds.10 mph65%30.10 "Hg15 mi
6:00 AM37 °FPassing clouds.13 mph70%30.08 "Hg15 mi
Weather by CustomWeather, © 2014

See weather overviewHow to use our weather pages